Weather reports worldwide

Advertisment
La Coruna, Spain (8001): temperature & dewpoint: 17.04.2018 15:00:00 - 23.04.2018 15:00:00 (CEST)La Coruna, Spain (8001): wind speed: 17.04.2018 15:00:00 - 23.04.2018 15:00:00 (CEST)La Coruna, Spain (8001): wind direction: 17.04.2018 15:00:00 - 23.04.2018 15:00:00 (CEST)La Coruna, Spain (8001): reduced air pressure: 17.04.2018 15:00:00 - 23.04.2018 15:00:00 (CEST)La Coruna, Spain (8001): visibility: 17.04.2018 15:00:00 - 23.04.2018 15:00:00 (CEST)La Coruna, Spain (8001): precipitation: 17.04.2018 15:00:00 - 23.04.2018 15:00:00 (CEST)
Date & Time tt [°C] td [°C] ff [km/h] ff [kn] dd ppp [hPa] vv [km] rr [mm]
23.04.2018 15:00:00 15,5 12,1 21 11 N 1020,3 11 0,0
23.04.2018 14:00:00 15,4 12,0 18 10 N 1020,8 25 -
23.04.2018 13:00:00 15,7 11,9 11 6 N 1021,6 10 0,0
23.04.2018 12:00:00 13,9 10,5 5 3 E 1021,7 11 0,0
23.04.2018 11:00:00 12,9 9,7 11 6 NE 1021,4 20 -
23.04.2018 10:00:00 13,3 9,2 16 9 ENE 1021,0 11 0,0
23.04.2018 09:00:00 12,0 9,2 13 7 NE 1021,0 11 0,0
23.04.2018 08:00:00 11,3 8,9 13 7 NE 1020,7 18 -
23.04.2018 07:00:00 11,6 8,8 9 5 ENE 1020,3 11 0,0
23.04.2018 06:00:00 11,6 8,8 13 7 NE 1019,9 12 0,0
23.04.2018 05:00:00 12,0 9,0 13 7 ENE 1020,1 18 -
23.04.2018 04:00:00 12,2 9,2 11 6 NE 1020,4 13 0,0
23.04.2018 03:00:00 12,0 9,0 15 8 ENE 1020,4 12 0,0
23.04.2018 02:00:00 11,9 9,1 9 5 NE 1020,5 20 -
23.04.2018 01:00:00 12,1 9,5 9 5 NE 1020,5 12 0,0
23.04.2018 00:00:00 12,3 9,1 11 6 NE 1020,4 13 0,0
22.04.2018 23:00:00 12,5 9,5 15 8 NE 1020,2 20 -
22.04.2018 22:00:00 12,7 10,2 13 7 NNE 1019,5 12 0,0
22.04.2018 21:00:00 12,7 10,2 16 9 N 1018,8 12 0,0
22.04.2018 20:00:00 13,0 10,4 9 5 N 1018,4 11 -
22.04.2018 19:00:00 13,1 10,3 16 9 N 1018,1 10 0,0
22.04.2018 18:00:00 13,5 10,8 13 7 N 1017,5 10 0,0
22.04.2018 17:00:00 13,6 11,6 13 7 N 1017,7 8 -
22.04.2018 16:00:00 14,4 11,9 11 6 NNW 1017,6 8 0,0
22.04.2018 15:00:00 14,5 11,8 5 3 NW 1017,4 9 0,0
22.04.2018 14:00:00 14,1 12,1 9 5 WNW 1017,6 8 -
22.04.2018 13:00:00 13,5 12,1 13 7 WNW 1018,0 7 0,0
22.04.2018 12:00:00 13,5 12,1 5 3 WNW 1017,7 6 0,0
22.04.2018 11:00:00 13,3 12,2 9 5 WNW 1017,5 3,0 -
22.04.2018 10:00:00 13,5 12,6 11 6 WNW 1017,2 - 0,0
22.04.2018 09:00:00 13,3 12,2 9 5 WNW 1016,8 4,7 0,0
22.04.2018 08:00:00 12,7 12,1 5 3 SE 1016,2 6 -
22.04.2018 07:00:00 12,6 12,1 8 4 SE 1016,3 2,1 0,0
22.04.2018 06:00:00 12,8 12,2 8 4 W 1016,8 0,6 0,0
22.04.2018 05:00:00 13,8 12,2 13 7 W 1016,7 5 -
22.04.2018 04:00:00 14,1 12,3 4 2 ESE 1017,0 7 0,0
22.04.2018 03:00:00 13,6 12,8 8 4 SE 1017,5 4,7 0,0
22.04.2018 02:00:00 13,6 12,7 4 2 WNW 1017,4 3,0 -
22.04.2018 01:00:00 14,7 12,9 13 7 WNW 1017,7 7 0,0
22.04.2018 00:00:00 15,0 12,5 4 2 NNE 1017,5 7 0,0
21.04.2018 23:00:00 14,3 12,5 4 2 NW 1016,9 6 -
21.04.2018 22:00:00 14,3 12,7 4 2 ENE 1015,9 - 0,0
21.04.2018 21:00:00 15,4 12,7 4 2 ENE 1015,9 6 0,0
21.04.2018 20:00:00 16,4 13,1 4 2 W 1015,6 7 -
21.04.2018 19:00:00 17,4 13,5 8 4 W 1015,1 8 0,0
21.04.2018 18:00:00 18,2 13,9 4 2 W 1014,8 8 0,0
21.04.2018 17:00:00 18,8 13,2 9 5 W 1014,8 9 -
21.04.2018 16:00:00 21,0 11,9 5 3 N 1014,6 10 0,0
21.04.2018 15:00:00 19,9 12,9 4 2 ENE 1014,5 8 0,0
21.04.2018 14:00:00 19,8 13,3 4 2 NE 1014,6 12 -
21.04.2018 13:00:00 19,7 12,2 5 3 NNE 1014,9 9 0,0
21.04.2018 12:00:00 17,8 12,0 5 3 NNE 1015,2 9 0,0
21.04.2018 11:00:00 16,8 12,9 5 3 N 1015,2 8 -
21.04.2018 10:00:00 15,0 12,1 4 2 ENE 1015,4 7 0,0
21.04.2018 09:00:00 13,0 11,7 2 1 NE 1015,2 6 0,0
21.04.2018 08:00:00 12,3 10,7 0 0 N 1015,0 15 -
21.04.2018 07:00:00 12,0 11,5 13 7 SSE 1014,8 8 0,0
21.04.2018 06:00:00 11,6 11,3 8 4 SE 1014,9 0,6 0,0
21.04.2018 05:00:00 12,0 11,7 4 2 ESE 1015,2 0,5 -
21.04.2018 04:00:00 12,1 11,6 4 2 ESE 1015,6 0,7 0,0
21.04.2018 03:00:00 12,2 11,6 4 2 S 1016,2 2,2 0,0
21.04.2018 02:00:00 12,6 11,7 5 3 SE 1016,4 15 -
21.04.2018 01:00:00 12,8 11,7 5 3 ESE 1016,5 - 0,0
21.04.2018 00:00:00 13,0 11,7 4 2 SSE 1016,9 6 0,0
20.04.2018 23:00:00 13,1 11,8 4 2 S 1017,2 15 -
20.04.2018 22:00:00 13,2 12,1 4 2 W 1017,0 6 0,0
20.04.2018 21:00:00 13,2 12,1 15 8 N 1016,8 6 0,0
20.04.2018 20:00:00 13,3 12,0 15 8 NNW 1016,9 8 -
20.04.2018 19:00:00 13,5 11,9 16 9 NNW 1016,9 8 0,0
20.04.2018 18:00:00 13,6 12,0 13 7 NNW 1017,3 9 0,0
20.04.2018 17:00:00 13,9 11,9 16 9 NNW 1017,8 8 -
20.04.2018 16:00:00 14,5 12,2 16 9 NNW 1018,2 8 0,0
20.04.2018 15:00:00 15,6 12,5 16 9 N 1018,5 9 0,0
20.04.2018 14:00:00 15,2 12,1 18 10 N 1019,3 12 -
20.04.2018 13:00:00 15,7 12,8 15 8 NNW 1019,5 8 0,0
20.04.2018 12:00:00 15,7 13,0 9 5 N 1019,6 7 0,0
20.04.2018 11:00:00 13,8 12,4 11 6 N 1019,7 8 -
20.04.2018 10:00:00 13,5 11,7 8 4 NE 1019,9 8 0,0
20.04.2018 09:00:00 13,0 11,4 11 6 ENE 1019,7 8 0,0
20.04.2018 08:00:00 12,7 11,4 13 7 NE 1020,0 7 -
20.04.2018 07:00:00 12,5 11,2 9 5 NE 1019,8 7 0,0
20.04.2018 06:00:00 12,7 11,6 15 8 N 1020,0 6 0,0
20.04.2018 05:00:00 13,1 11,2 13 7 NNE 1020,3 20 -
20.04.2018 04:00:00 13,0 11,6 8 4 NE 1020,8 6 0,0
20.04.2018 03:00:00 13,2 11,9 5 3 N 1021,0 6 0,0
20.04.2018 02:00:00 13,3 12,0 9 5 NNE 1021,1 15 -
20.04.2018 01:00:00 13,7 11,2 11 6 NNE 1021,3 9 0,0
20.04.2018 00:00:00 13,5 12,2 11 6 N 1021,8 6 0,0
19.04.2018 23:00:00 14,0 11,9 15 8 N 1021,7 15 -
19.04.2018 22:00:00 13,9 11,9 11 6 NNE 1021,6 7 0,0
19.04.2018 21:00:00 14,2 11,9 18 10 N 1021,4 9 0,0
19.04.2018 20:00:00 14,3 12,2 24 13 N 1021,0 9 -
19.04.2018 19:00:00 14,5 12,2 22 12 N 1021,1 9 0,0
19.04.2018 18:00:00 14,7 12,6 18 10 WNW 1021,3 8 0,0
19.04.2018 17:00:00 15,2 12,7 18 10 WNW 1021,4 9 -
19.04.2018 16:00:00 15,8 12,9 21 11 WNW 1021,6 9 0,0
19.04.2018 15:00:00 15,4 12,7 11 6 NW 1021,7 10 0,0
19.04.2018 14:00:00 15,5 12,4 13 7 WNW 1021,9 15 -
19.04.2018 13:00:00 15,0 12,1 11 6 NW 1022,3 10 0,0
19.04.2018 12:00:00 15,3 12,2 9 5 NNW 1021,9 10 0,0
19.04.2018 11:00:00 14,7 11,8 8 4 NNW 1021,8 12 -
19.04.2018 10:00:00 13,7 11,9 5 3 NNE 1021,9 8 0,0
19.04.2018 09:00:00 13,3 11,7 8 4 NNW 1021,8 6 0,0
19.04.2018 08:00:00 12,4 10,6 5 3 W 1021,5 12 -
19.04.2018 07:00:00 12,7 10,4 4 2 N 1021,2 8 0,0
19.04.2018 06:00:00 12,9 10,4 2 1 E 1021,5 8 0,0
19.04.2018 05:00:00 13,3 10,8 5 3 NE 1022,0 15 -
19.04.2018 04:00:00 13,4 10,7 5 3 NNE 1022,2 7 0,0
19.04.2018 03:00:00 13,7 10,7 5 3 NE 1022,6 7 0,0
19.04.2018 02:00:00 14,1 10,5 5 3 N 1022,7 15 -
19.04.2018 01:00:00 14,8 8,3 8 4 N 1022,7 10 0,0
19.04.2018 00:00:00 14,9 8,6 5 3 NE 1022,7 8 0,0
18.04.2018 23:00:00 15,1 9,0 5 3 ENE 1022,6 15 -
18.04.2018 22:00:00 15,3 10,9 9 5 N 1022,0 9 0,0
18.04.2018 21:00:00 16,1 11,0 13 7 N 1021,1 11 0,0
18.04.2018 20:00:00 17,5 10,1 8 4 NNW 1020,4 11 -
18.04.2018 19:00:00 17,5 10,6 9 5 N 1019,9 10 0,0
18.04.2018 18:00:00 18,1 11,2 13 7 NNW 1019,5 11 0,0
18.04.2018 17:00:00 18,6 10,7 13 7 NW 1019,4 12 -
18.04.2018 16:00:00 18,1 11,6 13 7 NNW 1019,7 11 0,0
18.04.2018 15:00:00 20,9 12,8 11 6 WSW 1019,5 11 0,0
18.04.2018 14:00:00 23,8 8,6 18 10 SSW 1019,7 25 -
18.04.2018 13:00:00 20,3 12,0 8 4 W 1020,4 10 0,0
18.04.2018 12:00:00 21,4 9,6 9 5 S 1020,5 13 0,0
18.04.2018 11:00:00 18,4 11,0 13 7 SE 1020,4 22 -
18.04.2018 10:00:00 15,4 10,2 15 8 SE 1020,5 12 0,0
18.04.2018 09:00:00 12,8 10,2 5 3 SE 1021,0 10 0,0
18.04.2018 08:00:00 11,4 9,5 2 1 E 1021,0 15 -
18.04.2018 07:00:00 11,8 9,7 2 1 WNW 1021,2 9 0,0
18.04.2018 06:00:00 12,7 10,2 5 3 SE 1021,3 7 0,0
18.04.2018 05:00:00 13,0 10,4 5 3 S 1021,6 18 -
18.04.2018 04:00:00 14,0 10,4 4 2 SSE 1022,0 12 0,0
18.04.2018 03:00:00 14,6 10,6 9 5 S 1022,3 14 0,0
18.04.2018 02:00:00 13,9 10,3 15 8 SSE 1022,9 18 -
18.04.2018 01:00:00 14,4 10,2 9 5 SSE 1023,2 15 0,0
18.04.2018 00:00:00 15,2 10,2 8 4 SSE 1023,3 15 0,0
17.04.2018 23:00:00 16,6 10,0 11 6 SSE 1023,3 18 -
17.04.2018 22:00:00 17,7 9,8 8 4 S 1022,7 16 0,0
17.04.2018 21:00:00 18,8 9,8 16 9 SSW 1022,0 15 0,0
17.04.2018 20:00:00 19,5 9,9 21 11 SSW 1021,9 16 -
17.04.2018 19:00:00 20,2 10,3 18 10 SSW 1021,8 16 0,0
17.04.2018 18:00:00 21,1 10,0 21 11 SW 1021,4 16 0,0
17.04.2018 17:00:00 21,1 10,0 18 10 S 1021,2 16 -
17.04.2018 16:00:00 21,4 10,2 28 15 SW 1021,0 15 0,0
17.04.2018 15:00:00 21,5 10,0 15 8 SSW 1020,8 16 0,0

tt = temperature
td = dewpoint
ff = wind speed
dd = wind direction
ppp = reduced air pressure
vv = visibility
rr = precipitation

Next stations